Theta_e
327 328 328 328 327 327 326 324 314 314 312 310 312 310 310 310 310 309 310 311 312 313 312 310 307 305 302 300 299 300 300 298 297 296 294 295 299 299
327 327 327 327 327 326 326 321 313 307 311 310 311 313 314 314 314 315 316 317 315 313 310 307 305 303 301 300 299 299 297 296 296 294 294 293 293 296
328 327 326 326 326 326 323 314 309 306 312 312 312 314 315 315 315 315 319 318 314 311 307 305 304 302 301 299 298 297 296 295 294 293 291 290 291 292
327 327 326 326 326 324 321 314 309 309 313 315 314 314 315 315 315 316 315 311 309 305 304 303 302 301 299 297 297 296 294 294 294 292 290 290 290 290
323 322 322 322 321 321 319 312 315 312 313 314 314 315 314 314 315 313 310 306 303 302 302 301 300 298 293 293 294 295 294 294 292 291 290 290 290 290
316 316 316 317 318 317 318 318 316 315 316 314 315 313 311 310 310 309 305 303 302 301 300 298 296 294 292 293 293 294 294 291 290 290 290 289 289 289
319 315 316 321 319 318 318 319 317 317 317 315 312 310 308 306 308 308 306 305 303 301 299 296 293 292 292 293 293 292 292 291 291 290 289 289 289 288
320 319 319 318 318 317 317 316 318 318 319 315 311 311 311 309 307 307 306 302 301 301 299 296 293 292 292 292 292 292 292 291 291 291 289 288 288 287
315 315 315 314 311 311 313 314 315 316 315 317 316 314 313 314 310 306 304 302 301 300 301 298 294 292 292 292 292 292 292 291 291 290 289 288 287 288
307 307 307 305 303 303 307 310 312 313 314 314 314 315 314 313 311 308 305 301 299 300 300 299 297 294 293 292 293 292 292 291 290 289 288 288 288 288
299 298 298 298 299 299 301 304 307 308 310 309 309 307 305 306 302 302 299 298 300 299 299 298 297 296 294 293 293 293 292 291 290 289 288 288 288 288
301 302 300 301 299 298 298 299 299 299 299 300 300 300 298 297 296 297 298 298 298 298 299 297 297 295 295 294 294 294 293 292 290 289 288 289 288 288
308 308 307 306 305 305 304 305 304 301 299 298 297 297 295 295 295 296 297 297 297 297 296 298 295 294 295 295 295 294 293 292 290 289 289 290 289 288
310 310 309 308 307 307 307 306 306 305 303 298 296 296 296 295 295 295 296 297 297 297 296 296 295 295 295 295 295 294 293 292 290 289 290 290 291 290
309 309 309 309 309 307 306 306 305 305 305 302 300 299 297 296 294 294 295 295 296 296 296 295 295 296 296 296 295 293 293 293 290 289 290 290 291 290
308 308 308 308 308 308 307 307 306 304 304 304 302 301 300 299 296 293 294 295 297 298 297 296 296 296 297 296 294 293 292 291 290 290 290 290 291 290
308 307 307 306 306 307 308 306 306 305 304 303 301 300 299 298 299 299 295 296 297 298 298 298 297 297 297 296 293 293 292 291 290 290 290 290 291 291
314 313 311 309 309 310 309 306 305 306 306 303 301 299 298 298 298 298 298 298 299 299 299 299 299 296 294 292 293 293 292 291 292 290 290 289 289 291
316 315 314 314 315 314 313 312 309 309 304 300 298 297 296 296 296 297 297 298 298 298 298 298 295 294 295 295 294 292 294 294 292 290 290 290 289 290
315 314 315 313 313 311 310 308 307 304 300 298 297 296 295 293 294 295 295 296 297 297 296 295 295 293 294 296 295 294 294 293 293 290 290 289 289 290
314 315 312 310 310 307 304 301 299 298 298 298 297 296 295 293 293 293 294 295 296 296 296 295 295 296 297 296 291 291 293 293 290 290 290 289 289 288
311 309 306 303 301 300 299 298 298 298 297 297 297 297 297 296 295 295 295 296 296 296 296 296 297 295 293 292 291 292 293 292 290 291 290 289 288 289
301 299 299 299 299 299 298 298 298 298 298 298 298 298 298 298 297 296 296 296 296 297 296 297 296 295 292 292 291 291 292 291 291 290 290 291 291 290
Wind_Speed
21 29 27 29 25 25 25 27 14 3 1 6 5 11 13 14 14 14 13 11 9 8 7 6 6 5 3 2 3 1 1 2 5 6 6 7 8 8
24 23 27 29 27 22 22 19 9 15 4 6 8 15 15 14 13 12 10 9 10 8 9 9 7 5 2 0 0 2 1 4 6 7 8 9 9 9
18 19 23 24 22 18 20 11 10 13 17 10 16 17 14 12 13 12 9 9 11 12 11 9 6 3 1 1 4 2 2 3 6 9 11 11 10 10
21 21 21 18 18 19 19 11 15 19 30 19 17 14 13 14 13 12 12 12 13 12 10 8 5 3 2 5 4 3 2 3 6 9 9 10 10 10
21 22 22 21 20 17 17 12 12 24 23 26 16 14 13 15 15 15 15 14 12 11 10 7 5 3 3 4 5 3 1 4 7 8 9 10 10 11
15 16 18 15 14 13 12 14 16 22 19 23 20 18 17 16 16 19 17 15 15 14 13 10 7 5 4 4 5 5 2 5 5 7 9 11 11 11
16 15 14 12 12 11 9 10 17 19 19 20 18 14 16 17 19 19 20 17 16 17 17 12 9 6 6 7 7 3 3 6 6 9 10 12 11 14
13 12 11 10 9 8 8 8 11 14 17 21 18 22 23 22 20 19 19 14 7 19 19 16 13 10 10 9 5 2 3 6 7 11 12 11 12 17
9 9 9 8 7 6 7 8 10 9 10 17 24 23 24 24 23 21 23 23 15 13 22 19 15 12 11 11 4 1 4 6 10 12 14 11 17 21
8 7 6 7 7 7 9 10 10 12 12 14 14 16 17 16 21 21 20 19 16 15 19 11 18 16 13 14 8 3 5 10 11 13 13 15 19 22
9 9 8 8 7 7 7 8 8 8 8 10 11 11 12 13 14 17 18 18 9 13 19 13 14 18 16 16 15 6 7 11 12 14 13 17 20 24
8 7 7 6 6 5 5 4 4 5 6 8 9 10 11 12 15 17 16 20 12 8 20 16 15 14 5 13 18 10 10 11 12 12 14 16 21 25
11 12 11 10 10 9 9 9 9 9 11 12 13 14 15 16 19 20 21 22 23 20 12 25 16 16 9 6 12 13 12 13 14 11 14 17 19 22
16 13 11 12 13 14 16 16 16 16 17 18 19 21 22 23 23 22 22 23 23 22 18 23 13 21 16 9 9 11 14 16 15 12 16 19 22 23
21 21 19 18 17 18 19 18 19 22 22 23 26 30 30 28 25 25 25 24 24 24 22 23 25 21 20 15 9 12 12 15 17 11 16 18 23 24
28 26 26 27 25 25 24 23 24 25 27 31 33 33 32 29 29 30 30 30 30 30 28 27 26 25 24 23 20 16 15 8 12 13 16 18 19 23
26 28 30 29 27 26 28 27 25 26 29 31 34 34 34 33 35 33 34 29 26 25 27 33 30 31 29 26 20 20 18 14 15 14 16 16 20 23
21 27 25 22 22 23 24 25 23 19 27 28 29 30 30 28 27 25 30 27 28 28 30 34 37 28 22 22 23 19 13 13 15 17 17 13 15 23
19 20 18 17 18 16 15 18 21 22 22 20 22 24 26 27 26 24 23 24 27 28 29 27 26 21 14 7 12 15 15 18 15 20 19 15 16 26
20 19 17 14 12 15 17 18 15 18 16 15 17 18 20 22 22 22 22 24 25 26 23 23 28 27 20 10 11 16 17 15 18 15 15 17 24 24
12 10 8 8 4 8 8 8 8 11 13 14 15 17 19 20 23 22 22 24 26 22 19 20 24 14 16 15 10 14 16 14 17 17 18 16 13 11
5 4 8 7 7 8 8 8 10 11 12 14 16 17 19 19 20 18 18 18 17 19 18 17 13 14 14 20 17 12 15 14 15 17 22 16 15 7
17 12 11 12 13 12 10 11 11 14 17 18 18 18 17 18 18 18 17 16 15 12 11 23 28 30 20 22 18 15 15 17 19 19 20 18 19 23
Wind_Direction
151 158 156 157 169 171 168 165 133 137 115 150 146 154 143 140 143 150 157 159 166 187 185 169 152 140 120 96 59 35 352 18 358 355 358 7 9 3
165 159 163 167 175 178 176 168 157 141 120 130 138 152 148 148 157 159 166 185 194 189 178 164 163 156 134 281 179 193 262 332 350 359 2 354 350 351
160 162 168 170 174 177 175 170 158 159 126 134 147 157 161 167 167 172 185 187 177 175 174 178 180 176 164 228 192 189 324 320 354 357 351 350 348 338
143 148 149 155 167 173 176 178 158 163 148 140 151 163 175 174 176 176 166 164 166 174 186 190 195 211 198 189 220 277 309 335 344 335 342 345 338 334
132 138 142 154 157 164 170 156 159 165 159 160 158 169 162 170 168 169 167 167 167 177 190 197 205 216 217 204 220 246 265 335 321 325 337 342 337 337
133 138 138 140 141 152 169 181 174 173 172 170 168 169 169 172 178 173 170 174 175 184 191 193 196 202 216 205 186 184 287 313 323 332 335 337 338 339
127 135 146 148 151 156 158 167 184 178 180 178 171 176 184 185 192 190 193 191 195 195 193 191 190 192 187 177 172 187 301 316 318 335 336 337 344 340
147 150 154 161 166 171 181 199 200 199 197 189 190 197 202 206 203 202 198 190 211 211 204 198 195 188 184 180 173 194 317 299 294 323 335 338 337 341
179 180 180 183 186 192 192 200 213 223 234 222 210 215 218 222 217 214 214 213 213 211 205 206 204 199 195 186 172 208 309 306 303 315 330 331 337 341
166 165 170 170 171 172 179 189 202 214 220 217 226 236 240 240 233 236 232 224 224 215 206 213 217 213 212 214 208 238 297 321 311 318 329 332 339 340
174 175 178 179 178 179 182 189 194 203 221 233 244 254 253 245 235 223 208 198 210 216 215 215 217 219 228 229 215 247 292 320 314 322 327 335 340 339
196 206 211 211 217 214 219 234 249 272 272 275 273 263 252 239 231 227 231 209 210 218 222 211 218 207 229 232 211 245 276 307 308 312 328 339 344 342
230 230 232 240 249 259 267 274 281 285 281 272 264 258 251 242 237 234 232 231 225 230 229 208 207 205 210 219 234 253 267 306 309 306 326 334 341 342
249 260 266 271 275 281 283 286 285 277 274 272 267 261 256 252 251 248 246 246 242 247 250 218 221 210 207 212 228 247 280 298 300 295 320 327 331 334
262 268 274 281 283 280 277 274 270 269 268 266 268 270 271 274 269 258 251 246 242 241 236 222 225 229 227 230 227 241 266 285 289 284 317 324 327 334
261 270 275 275 275 277 275 271 267 265 265 266 269 275 278 273 267 261 255 250 242 243 238 232 234 240 241 238 237 245 252 250 262 282 306 315 321 332
265 267 267 267 270 273 273 270 268 268 265 270 271 274 276 275 273 268 261 249 239 240 240 237 238 245 247 243 231 241 249 263 271 283 305 309 319 330
249 252 259 267 271 279 287 285 278 279 288 285 282 282 271 266 266 262 264 248 245 244 240 240 239 231 231 237 236 234 245 265 286 289 296 301 308 328
240 253 261 268 277 283 294 301 302 312 304 293 296 296 294 288 276 267 263 259 255 253 251 248 232 217 219 229 234 236 248 266 284 280 284 293 296 320
245 256 271 277 298 301 312 313 321 307 304 311 308 304 302 295 285 277 268 262 261 263 256 238 230 217 220 230 245 252 250 264 271 266 284 304 309 320
271 277 257 291 8 333 333 339 333 323 333 331 326 322 316 309 301 289 280 275 270 262 255 244 227 228 261 252 232 231 242 268 263 265 289 302 300 303
55 68 70 74 68 61 46 26 8 1 353 346 342 338 332 323 311 304 292 286 277 264 250 241 257 259 252 229 222 221 245 258 255 278 280 278 286 285
69 47 71 77 79 71 59 45 33 22 12 2 355 347 346 341 337 324 307 289 281 270 284 307 285 269 236 219 225 235 253 252 269 281 285 289 304 311